Погода в Рабочеостровске

Россия / Республика Карелия     64°59′05″N   34°45′08″E
темп.,
°C
ветер,
м/с
пор.,
м/с
влажн.,
%
обл.,
%
осадки,
мм/ч
давл.,
гПа
погр.,
м
24 июля, сб
сб2400:00+9сз4668100 0.1 1009141
03:00+8з5876100 0.1 1009186
06:00+10зсз61067100 0.0 1008419
09:00+12зсз7962100 0.0 1008584
12:00+12сз6958100 0.1 1009625
15:00+13сз6955100 0.1 1010660
18:00+14сз585591 0.0 1010644
21:00+13зсз4662100 0.0 1011159
25 июля, вс
вс2500:00+12зюз5864100 0.0 1011144
03:00+13зюз5864100 0.0 1011162
06:00+12з61088100 0.3 1011236
09:00+11з5992100 1.5 1012230
12:00+14з467445 0.2 1013349
15:00+12всв558343 0.5 1015213
18:00+13юв147595 0.0 1015582
21:00+14сз126991 0.0 101519
26 июля, пн
пн2600:00+14зюз336795 0.0 101633
03:00+12юз338099 0.4 101634
06:00+13зсз468554 0.3 1016134
09:00+14ссз467753 0.3 1017254
12:00+14всв457858 0.0 1019484
15:00+13в338125 0.0 1019255
18:00+12вюв348571 0.0 102080
21:00+13ю2282100 0.0 102018
27 июля, вт
вт2700:00+12юз23815 0.0 102113
03:00+11з11850 0.0 102110
06:00+12юв128220 0.0 102141
09:00+13ююв33765 0.0 1021204
12:00+15юв437292 0.0 1020373
15:00+15юв66695 0.0 1018233
18:00+15ююв6869100 0.0 1015138
21:00+16ю587288 0.0 101299
28 июля, ср
ср2800:00+16юз698633 0.1 101184
03:00+16з588297 0.1 100985
06:00+16з598273 0.2 1007107
09:00+16ссв567815 0.6 1007237
12:00+12св688946 0.0 1009243
15:00+12св57803 0.0 1008267
18:00+12всв57760 0.2 1007222
21:00+11в467910 0.2 1006147